Terminal Aerodrome Forecast
Issued by NWS

Home | Current Version | Previous Version | Text Only | Print | Product List | Glossary On
Versions: 1 2 3 4 5 6 7 8 9 10 11 12 13 14 15 16 17 18 19 20 21 22 23 24 25 26 27 28 29 30 31 32 33 34 35 36 37 38 39 40 41 42 43 44 45 46 47 48 49 50
000
FTUS44 KHGX 141120
TAFIAH
TAF
KIAH 141120Z 1412/1518 VRB03KT P6SM SCT250
     FM141500 22006KT P6SM SCT040 SCT250
     FM142200 15007KT P6SM VCTS SCT060CB SCT250
     FM150200 VRB05KT P6SM SCT250
     FM151400 29005KT P6SM BKN080 PROB30 1514/1518 P6SM RA BKN070=

USA.gov is the U.S. government's official web portal to all federal, state and local government web resources and services.